Theta_e
315 316 316 315 315 316 316 315 318 318 316 315 314 316 324 326 326 328 329 329 332 333 331 330 330 328 326 324 331 336 337 337 336 333 331 332 334 333 332 327 325 328 329
311 311 312 313 314 313 314 315 316 317 316 314 314 315 321 324 325 326 329 331 331 330 327 327 326 325 326 331 332 335 335 334 334 331 333 335 334 333 329 328 325 330 331
309 309 309 309 309 310 311 312 313 313 315 315 315 315 318 321 323 324 325 329 329 329 326 325 325 325 326 325 332 332 334 334 334 335 335 333 333 328 327 325 326 327 332
307 306 305 305 304 304 306 307 308 311 312 313 314 315 316 318 323 323 324 327 327 325 324 324 323 323 323 324 327 329 330 333 334 334 332 333 327 326 325 323 324 330 329
305 304 304 303 303 303 303 303 304 307 310 311 311 314 316 316 320 323 323 324 323 323 321 320 321 320 321 327 327 327 327 328 332 333 332 327 326 321 319 317 320 316 314
302 302 302 301 302 302 303 302 302 303 306 309 309 311 317 316 318 322 324 321 322 320 320 324 329 331 332 331 329 330 329 330 331 329 326 323 323 322 318 322 322 322 314
302 304 302 301 301 301 301 301 301 303 304 304 307 309 311 317 317 320 321 320 321 323 326 328 330 331 331 331 331 330 328 326 323 319 314 314 319 324 325 326 325 323 324
304 303 301 301 301 301 301 301 301 303 303 305 307 308 310 313 315 320 319 320 321 321 321 328 330 331 329 329 327 322 316 317 318 317 318 319 322 324 324 323 323 324 322
301 300 301 301 301 302 302 301 301 301 303 305 305 307 309 310 314 316 317 319 322 322 322 329 327 325 321 317 314 317 322 323 323 322 322 320 320 322 323 322 322 319 315
301 301 303 303 304 304 304 302 301 301 301 303 305 306 306 310 313 317 316 319 318 320 326 326 319 317 316 315 315 312 311 312 313 317 320 319 318 317 316 312 312 315 330
301 303 305 305 305 304 303 303 301 300 300 302 303 307 309 310 314 318 318 317 317 320 323 319 320 318 315 315 315 314 313 313 312 311 310 310 311 312 312 314 321 330 332
303 305 306 306 305 304 303 303 301 300 300 302 303 305 309 314 318 318 318 318 317 321 320 318 317 315 315 316 315 314 314 314 314 313 313 310 312 314 321 329 331 328 326
305 306 307 306 304 302 299 302 301 300 300 302 303 305 310 315 320 319 319 318 319 320 318 314 315 315 317 317 316 314 314 314 314 318 314 311 315 318 324 330 328 328 327
305 307 307 305 303 301 300 300 301 300 300 302 304 307 311 317 319 320 318 321 321 319 315 315 317 319 319 317 316 315 314 315 316 320 320 319 318 320 325 330 328 327 327
308 309 308 304 303 300 300 300 300 300 300 302 305 307 310 315 319 316 319 321 321 319 316 319 320 320 317 317 317 316 315 316 316 318 320 321 322 318 322 330 328 328 327
308 309 308 306 303 300 300 300 300 299 300 302 303 307 309 312 317 317 319 315 320 319 318 319 319 318 318 317 317 316 315 316 316 317 318 321 322 320 324 329 327 326 327
308 310 308 306 305 302 301 300 300 300 300 302 302 303 308 311 315 316 316 318 315 316 318 318 317 316 316 316 316 317 316 317 315 315 319 322 323 322 318 329 326 327 327
309 311 310 308 306 304 303 302 301 301 301 301 302 305 307 309 314 315 316 318 317 317 317 316 318 319 318 317 318 317 317 317 314 314 318 322 323 322 319 327 327 326 326
310 311 312 311 308 307 306 304 303 303 303 304 302 304 309 309 313 315 314 316 318 317 318 319 318 318 317 317 318 317 318 317 313 313 318 321 323 322 321 321 327 327 326
309 311 311 312 311 309 307 307 306 304 304 304 303 306 309 309 312 315 315 317 318 317 318 318 317 317 317 317 316 316 316 314 313 313 317 321 323 323 322 326 327 326 325
307 309 311 311 311 312 310 307 307 305 306 305 304 309 309 309 311 315 315 316 317 319 317 317 318 317 317 316 316 315 313 317 313 313 322 323 323 321 322 327 327 321 322
307 308 309 309 309 310 313 309 307 306 306 306 306 309 309 310 311 314 316 316 317 317 317 317 317 316 318 317 316 315 315 320 319 317 320 321 320 320 327 327 327 325 325
304 305 308 309 309 310 312 310 309 306 306 307 308 309 309 311 313 314 315 317 317 317 317 317 317 319 318 317 315 314 313 315 319 320 319 321 320 320 327 327 326 326 327
301 302 303 306 307 307 310 312 310 308 306 306 307 308 309 310 311 313 316 317 316 316 317 318 318 318 317 316 315 314 314 314 315 322 322 321 320 321 326 327 325 325 327
299 300 301 302 304 304 307 309 310 310 309 307 306 306 307 309 310 311 313 316 316 315 315 316 316 316 315 315 315 314 314 313 312 314 319 320 318 324 327 324 323 325 326
298 299 299 300 301 303 304 306 308 310 311 309 307 307 306 307 308 310 311 311 314 316 316 316 315 315 315 315 314 312 311 311 312 318 320 320 318 326 326 325 324 324 324
Wind_Speed
20 20 23 26 28 29 26 26 24 24 28 36 39 39 34 31 30 33 36 38 44 44 33 26 26 28 40 38 55 51 40 34 29 27 21 16 16 14 11 11 9 11 11
39 42 42 39 36 35 32 27 25 23 27 30 33 36 35 32 32 31 33 39 39 36 28 26 22 23 27 30 46 34 30 26 24 25 21 15 12 12 9 8 9 10 11
51 53 55 56 54 52 51 47 38 30 25 25 26 28 33 33 32 29 29 36 38 37 32 26 27 29 7 33 32 32 24 26 24 21 19 14 10 9 10 11 11 12 11
56 52 48 44 42 46 48 49 50 45 38 27 22 21 27 34 30 26 29 37 39 37 37 33 27 33 33 24 27 26 28 24 24 22 19 16 13 13 10 9 3 6 10
48 44 40 40 39 39 40 40 41 44 46 40 32 21 21 29 32 31 30 31 27 23 29 36 32 26 25 28 31 30 27 26 25 21 19 16 15 14 14 14 13 15 15
38 35 38 36 36 36 33 39 39 33 33 38 36 28 18 25 30 28 21 21 28 29 25 21 22 21 23 28 25 23 24 26 18 19 19 17 15 14 9 7 5 7 7
35 34 34 32 33 34 38 34 31 30 34 34 36 35 23 22 27 28 24 28 31 29 25 26 20 20 23 22 22 20 18 16 17 18 18 15 12 11 11 5 4 6 8
33 33 32 31 29 29 33 34 33 32 29 24 23 24 33 22 24 27 27 32 42 42 39 32 23 22 24 25 21 19 18 16 13 12 11 12 9 10 8 6 6 9 11
33 32 30 27 29 30 33 35 32 30 23 27 27 25 22 26 21 31 35 30 31 34 38 31 29 32 26 22 22 20 18 16 13 11 9 9 9 9 7 10 11 14 12
30 28 24 29 33 38 39 36 34 30 30 26 19 19 29 25 25 23 24 38 36 29 24 33 32 29 26 21 17 15 14 11 8 10 10 9 10 9 13 11 13 13 7
28 25 28 33 36 35 33 38 33 28 25 21 27 15 19 30 31 27 29 38 32 26 36 33 31 27 22 19 16 12 10 7 5 3 4 5 8 9 8 9 9 5 4
23 28 33 36 38 41 37 38 31 25 24 17 21 20 16 19 24 21 23 45 33 37 39 36 30 25 21 19 15 11 7 4 2 5 7 4 4 4 3 3 5 5 8
25 30 34 37 36 35 33 30 24 21 19 15 16 18 11 16 18 23 14 26 42 50 43 35 28 23 22 19 13 8 7 7 7 8 6 1 2 1 3 1 6 8 5
28 33 32 31 32 31 26 19 22 18 16 15 15 14 11 10 14 16 24 30 42 44 36 30 26 25 22 18 12 6 8 7 3 6 9 9 4 5 4 3 6 8 5
26 30 32 27 29 26 20 13 12 13 14 17 13 15 12 7 16 19 13 35 41 38 35 32 28 27 25 18 11 2 8 4 4 9 8 5 9 9 3 1 6 7 5
26 31 30 27 24 20 18 13 9 9 10 15 13 18 16 5 11 21 17 21 35 34 32 31 29 26 20 14 7 5 8 3 5 8 10 8 7 12 2 3 5 4 5
23 31 28 20 20 17 15 14 7 6 10 10 13 18 26 4 11 13 25 26 24 30 34 30 25 18 13 9 8 10 8 4 6 9 7 6 6 11 4 2 3 4 6
20 25 28 22 16 14 13 10 9 6 3 12 16 16 28 14 15 19 29 28 27 21 17 19 18 11 8 8 9 9 5 7 9 8 7 7 7 11 10 2 3 4 7
17 21 25 26 17 12 12 9 6 6 6 7 13 20 26 14 15 23 27 27 30 31 22 20 17 10 7 8 9 6 7 10 11 9 8 9 9 12 12 4 6 7 7
18 18 22 21 19 15 9 10 8 7 8 6 11 26 25 14 15 25 31 30 32 37 33 34 19 15 8 9 9 5 7 13 12 10 7 8 9 10 11 6 7 4 6
19 20 21 23 15 19 13 8 8 6 5 3 11 27 22 11 10 16 29 28 27 28 30 29 21 17 17 14 8 4 7 8 8 4 6 4 7 15 9 4 6 5 2
18 19 19 21 21 13 12 5 5 4 3 7 16 21 12 7 7 10 26 27 28 29 27 25 24 23 21 15 9 5 4 8 8 3 4 7 13 13 5 4 4 3 7
21 19 18 19 19 14 11 5 7 7 7 10 20 18 15 11 9 13 17 25 26 26 24 26 26 22 20 15 11 6 5 9 13 6 6 9 12 10 4 6 5 7 15
24 23 23 20 19 18 12 8 3 6 5 9 13 22 17 15 14 15 23 22 21 17 17 19 20 20 19 17 13 10 10 12 11 10 4 7 11 11 3 9 8 6 16
32 29 28 25 23 20 18 13 8 4 3 2 9 15 23 26 19 16 17 23 23 22 18 19 20 20 19 19 17 16 18 17 23 14 13 13 14 9 8 9 9 7 25
35 33 30 27 25 22 20 16 12 6 5 6 6 8 15 23 31 26 22 18 22 27 25 23 23 23 23 21 23 25 26 19 12 11 14 14 12 10 12 19 12 17 23
Wind_Direction
305 294 285 280 278 275 274 274 276 285 292 295 300 299 300 285 287 287 281 277 269 266 262 268 259 249 257 260 233 228 226 227 230 239 250 256 256 256 235 264 280 286 283
302 299 293 287 283 283 279 276 274 279 278 285 295 300 304 303 291 283 280 273 266 249 241 245 244 235 248 232 219 219 223 228 234 243 249 248 248 242 248 245 265 275 286
311 308 303 297 289 283 281 280 278 281 284 283 284 303 302 303 299 278 275 268 258 243 240 236 231 214 211 202 216 224 225 231 233 233 236 229 229 222 232 263 268 275 274
311 308 303 301 297 294 287 283 281 274 278 284 285 292 299 303 300 279 274 262 254 253 250 228 203 164 143 198 218 225 224 218 220 223 223 214 216 213 228 252 267 288 288
311 308 306 305 303 300 299 295 287 278 271 274 281 289 293 294 294 290 275 264 250 212 182 166 165 158 168 203 213 210 214 213 215 207 206 206 207 232 236 243 246 262 271
311 307 309 306 303 304 298 297 292 287 277 268 272 274 293 287 296 288 260 239 194 187 192 206 220 205 209 207 210 213 215 204 199 206 215 219 223 245 240 232 235 265 283
315 316 318 313 302 297 300 302 299 289 286 280 267 269 272 276 287 280 241 222 213 230 241 235 233 223 208 189 182 182 187 198 217 224 229 230 202 215 231 228 258 269 276
311 316 316 315 313 308 306 303 297 295 291 278 269 268 259 267 274 261 266 239 239 258 261 244 214 203 191 180 182 194 195 189 192 192 195 205 208 230 244 259 265 277 281
315 315 315 317 312 312 312 310 304 284 284 270 269 256 249 256 263 274 245 253 253 270 255 233 198 180 173 179 180 174 174 179 185 195 210 227 232 243 261 267 277 280 290
317 312 310 311 312 313 310 304 305 297 285 268 277 263 247 240 251 263 236 240 255 267 245 190 175 167 168 164 169 165 159 166 176 206 219 233 249 247 254 267 270 279 294
313 312 316 319 319 311 307 304 300 292 282 270 255 255 235 227 240 248 238 227 256 263 189 177 170 168 166 162 153 143 130 138 159 211 240 258 248 234 247 255 270 255 231
317 317 320 322 319 316 307 299 286 289 280 267 253 247 254 218 235 215 227 233 238 208 182 175 171 169 167 156 146 130 106 68 359 299 292 319 252 220 228 259 209 137 123
318 320 325 328 323 324 314 297 273 283 275 260 244 239 242 217 217 226 235 214 207 190 176 174 170 168 164 160 150 115 62 22 357 327 317 244 183 2 16 133 132 146 149
324 329 328 332 327 334 327 299 282 276 266 239 222 222 213 203 203 191 198 197 186 184 170 167 170 169 173 171 157 94 36 13 17 356 30 37 28 20 23 164 155 176 200
329 332 336 328 343 341 339 331 294 271 262 238 214 209 207 186 184 193 173 179 179 178 164 166 166 170 172 173 175 75 2 4 10 346 334 346 16 21 55 86 166 178 210
330 335 340 338 341 350 349 342 321 267 252 220 220 200 203 187 180 186 192 146 172 171 168 165 170 173 177 182 194 299 315 315 334 335 317 289 355 11 42 201 145 162 214
336 337 343 338 346 353 354 351 345 332 213 209 223 226 208 216 187 178 200 184 153 154 159 163 169 180 191 216 250 278 295 295 314 310 321 330 310 344 320 215 182 181 197
342 346 352 330 344 351 352 348 357 355 290 231 218 210 205 217 201 185 187 187 184 195 189 187 187 198 219 245 264 272 261 287 305 321 340 317 288 333 344 257 205 239 232
343 348 351 346 331 347 355 4 335 321 303 310 218 211 187 190 184 191 200 196 204 215 209 199 193 194 206 221 250 238 264 289 317 305 318 301 294 326 335 265 264 258 262
337 343 345 350 336 323 340 350 343 309 300 290 212 190 186 204 186 192 199 200 204 214 222 210 217 204 226 225 239 244 290 307 291 275 310 305 302 335 336 294 247 252 257
343 342 342 349 353 346 314 334 360 339 332 237 188 178 186 199 191 191 197 204 202 202 205 206 218 222 226 216 219 272 310 345 336 256 326 338 331 341 326 286 210 6 331
359 357 354 355 2 1 353 355 24 38 39 162 163 154 173 156 185 205 194 199 199 198 204 208 219 235 221 218 227 265 310 358 354 312 348 351 340 332 320 268 223 340 276
14 10 11 14 15 17 34 17 42 63 97 145 153 163 168 165 149 160 170 194 204 210 214 215 219 209 214 221 230 243 324 325 349 308 303 315 338 331 274 245 206 219 209
25 24 22 27 29 32 44 53 82 68 118 152 182 191 183 174 174 154 163 166 168 171 191 185 193 210 219 218 224 242 283 313 327 343 308 294 326 319 255 193 181 210 205
31 29 27 28 32 35 46 59 98 126 155 143 200 209 215 203 184 177 175 182 181 176 176 184 195 206 210 226 243 257 280 289 301 283 295 302 310 282 224 192 174 178 188
33 35 34 32 32 38 42 47 55 77 115 194 218 220 214 215 219 215 207 208 203 206 208 209 209 215 221 235 260 274 281 285 256 262 279 281 288 260 240 192 210 206 198